Location: Igloolik
(69.3800°N, 81.8000°W)
Time: 19:59:33
(UTC-05:00)

Amateur Radio Satellites - All Passes

Search period start: 04 May 2016 19:29
Search period end: 05 May 2016 19:29
Location: Igloolik, 69.3800°N, 81.8000°W

Satellite Date Start Highest point End Downlink Frequencies (MHz)
Time Altitude Azimuth
MOZHAYETS 4 04 May 19:30:34 19:34:35 31° 322° (NW) 19:38:36
ESTCUBE 1 04 May 19:33:09 19:36:48 25° 29° (NNE) 19:40:28 437.505/2401.250
CUBEBUG 1 04 May 19:37:17 19:40:47 23° 27° (NNE) 19:44:17 437.445
ZACube-1 04 May 19:43:37 19:48:03 69° 60° (ENE) 19:52:23 437.345
AAUSAT CUBESAT 2 04 May 19:43:51 19:47:58 75° 249° (WSW) 19:52:08 437.432
CUBESAT XI-V 04 May 19:43:54 19:48:31 60° 304° (WNW) 19:53:10 437.345
RS-15 04 May 19:44:48 19:52:09 20° 92° (E) 19:59:39 29.354- 29.394
CANX-2 04 May 19:55:49 19:59:49 40° 262° (W) 20:03:50 2200.000
50 SAT 04 May 19:57:46 20:00:31 20° 34° (NE) 20:03:17 437.505
DX 1 04 May 19:59:30 20:03:09 26° 31° (NNE) 20:06:49 434.975-435.025
UKube-1 04 May 20:02:10 20:05:43 25° 30° (NNE) 20:09:17 .
DOVE 4 04 May 20:06:27 20:11:01 28° 274° (W) 20:15:37 437.250
BEESAT 3 04 May 20:07:00 20:10:27 29° 150° (SSE) 20:13:54 437.485
VELOX 1 04 May 20:09:38 20:13:29 29° 35° (NE) 20:17:21 145.980
CUTE-I 04 May 20:10:35 20:13:20 14° 289° (WNW) 20:16:05 437.470
HO-68 04 May 20:10:40 20:17:30 45° 262° (W) 20:24:21 435.675
DANDE 04 May 20:11:08 20:14:59 25° 354° (N) 20:19:47 436.750
PRISM 04 May 20:11:20 20:14:49 25° 91° (E) 20:18:19 437.425
STRAND 1 04 May 20:13:56 20:19:01 60° 106° (ESE) 20:24:06 437.568
ITUPSAT 1 04 May 20:14:02 20:17:30 20° 357° (N) 20:20:58 437.325
Cosmos 2491 04 May 20:17:49 20:24:35 26° 298° (WNW) 20:31:20 435.465 / 435.565
BEESAT 2 04 May 20:18:29 20:21:53 27° 148° (SSE) 20:25:19 435.950
Oscar 11 04 May 20:21:45 20:26:05 73° 250° (WSW) 20:30:26 145.826/435.025
SWISSCUBE 04 May 20:22:12 20:25:38 20° 0° (N) 20:29:05 437.505
GOMX 1 04 May 20:22:33 20:26:21 19° 286° (WNW) 20:30:14 467.674
SPROUT 04 May 20:28:12 20:31:39 23° 30° (NNE) 20:35:05 437.525
HUMSAT D 04 May 20:28:45 20:32:53 61° 59° (ENE) 20:36:58 437.325/437.525
CUTE 1.7 + AOD 2 04 May 20:28:47 20:32:29 29° 269° (W) 20:36:12 437.475
AIST 2 04 May 20:32:07 20:33:59 13° 125° (SE) 20:35:51 435.215
CINEMA 3 04 May 20:34:08 20:38:38 32° 269° (W) 20:43:03 145.822/145.860
FUNcube-1 04 May 20:36:26 20:40:52 68° 252° (WSW) 20:45:12 145.935
DELFI C3 04 May 20:40:05 20:44:04 81° 252° (WSW) 20:48:04 145.870
AISAT 04 May 20:41:35 20:45:43 37° 43° (NE) 20:49:51 437.250
O/OREOS (USA 219) 04 May 20:42:40 20:47:17 76° 21° (NNE) 20:51:51 437.305
PCSat 04 May 20:42:44 20:48:10 66° 194° (SSW) 20:53:34 145.827
YUBILEINY 04 May 20:45:59 20:54:40 65° 306° (NW) 21:03:22 435.215
GONETS M04 04 May 20:47:40 20:52:35 17° 44° (NE) 20:57:28
KKS-1 04 May 20:48:53 20:52:08 20° 345° (NNW) 20:55:23 437.445
COMPASS 1 04 May 20:51:34 20:55:13 29° 268° (W) 20:58:53 437.405
CUSAT 1 04 May 20:52:13 20:57:18 30° 13° (NNE) 21:03:29 437.405
SEEDS 04 May 20:52:30 20:56:00 25° 271° (W) 20:59:30 437.485
UWE-3 04 May 20:54:25 20:58:48 45° 260° (W) 21:03:05 435.000/436.395/437.385
TISAT 1 04 May 20:54:40 20:57:52 21° 25° (NNE) 21:01:04 437.305
BEESAT 04 May 20:54:47 20:58:17 21° 7° (N) 21:01:46 436.000
Cosmos 2504 04 May 20:59:06 21:06:17 85° 107° (ESE) 21:13:39 435.465 / 435.565
STARS 04 May 20:59:49 21:03:06 21° 341° (NNW) 21:06:23 437.465
CUBEBUG 2 04 May 21:06:53 21:11:08 34° 266° (W) 21:15:17 437.445
AO-85 04 May 21:07:31 21:09:31 12° 244° (WSW) 21:11:28 145.980
MOZHAYETS 4 04 May 21:07:33 21:10:47 19° 345° (NNW) 21:14:01
ESTCUBE 1 04 May 21:08:36 21:12:58 51° 53° (NE) 21:17:22 437.505/2401.250
CUBEBUG 1 04 May 21:12:08 21:16:22 45° 50° (NE) 21:20:38 437.445
UNISAT 6 04 May 21:17:14 21:19:37 14° 76° (ENE) 21:21:59 437.425
ZACube-1 04 May 21:20:28 21:24:39 39° 263° (W) 21:28:46 437.345
AAUSAT CUBESAT 2 04 May 21:20:51 21:24:09 23° 273° (W) 21:27:30 437.432
Cosmos 2499 04 May 21:21:01 21:23:01 11° 41° (NE) 21:25:03 435.465 / 435.565
CUBESAT XI-V 04 May 21:21:24 21:25:22 28° 326° (NW) 21:29:20 437.345
50 SAT 04 May 21:30:14 21:33:46 51° 56° (ENE) 21:37:21 437.505
TIGRISAT 04 May 21:33:47 21:36:39 17° 79° (E) 21:39:28 435.000
DX 1 04 May 21:34:28 21:38:47 56° 54° (NE) 21:43:07 434.975-435.025
CANX-2 04 May 21:34:47 21:36:50 13° 285° (WNW) 21:38:53 2200.000
UKube-1 04 May 21:36:57 21:41:11 53° 53° (NE) 21:45:27 .
BEESAT 3 04 May 21:43:50 21:47:37 43° 173° (S) 21:51:24 437.485
VELOX 1 04 May 21:45:03 21:49:29 65° 58° (ENE) 21:53:57 145.980
PRISM 04 May 21:46:34 21:50:45 81° 111° (ESE) 21:54:57 437.425
DOVE 4 04 May 21:49:13 21:50:32 11° 299° (WNW) 21:51:51 437.250
ITUPSAT 1 04 May 21:50:26 21:54:12 24° 21° (NNE) 21:57:59 437.325
RS-15 04 May 21:50:39 22:01:03 41° 122° (ESE) 22:11:53 29.354- 29.394
STRAND 1 04 May 21:53:18 21:58:18 55° 310° (NW) 22:03:18 437.568
DANDE 04 May 21:55:09 21:59:30 28° 21° (NNE) 22:04:58 436.750
BEESAT 2 04 May 21:55:22 21:59:11 42° 170° (S) 22:02:59 435.950
SWISSCUBE 04 May 21:58:28 22:02:19 25° 24° (NNE) 22:06:11 437.505
ANTELSAT 04 May 21:58:58 22:02:29 23° 86° (E) 22:05:56 437.575/2403.000
Oscar 11 04 May 21:59:29 22:02:57 23° 273° (W) 22:06:26 145.826/435.025
HO-68 04 May 22:02:16 22:07:14 20° 288° (WNW) 22:12:13 435.675
SPROUT 04 May 22:02:47 22:06:59 49° 53° (NE) 22:11:10 437.525
HUMSAT D 04 May 22:04:46 22:08:46 41° 261° (W) 22:12:43 437.325/437.525
AIST 2 04 May 22:07:50 22:11:25 28° 147° (SSE) 22:15:00 435.215
NANOSAT C BR1 04 May 22:10:07 22:11:31 11° 73° (ENE) 22:12:55 145.865
FUNcube-1 04 May 22:14:25 22:17:53 22° 275° (W) 22:21:18 145.935
Cosmos 2491 04 May 22:14:42 22:18:14 13° 327° (NNW) 22:21:47 435.465 / 435.565
CINEMA 3 04 May 22:15:31 22:17:18 12° 293° (WNW) 22:19:05 145.822/145.860
DELFI C3 04 May 22:16:18 22:19:32 24° 271° (W) 22:22:48 145.870
AISAT 04 May 22:17:27 22:21:57 87° 241° (WSW) 22:26:30 437.250
O/OREOS (USA 219) 04 May 22:22:12 22:26:42 57° 225° (SW) 22:31:09 437.305
KKS-1 04 May 22:24:25 22:27:32 19° 9° (N) 22:30:40 437.445
PCSat 04 May 22:26:02 22:31:08 42° 218° (SW) 22:36:14 145.827
TISAT 1 04 May 22:28:46 22:32:47 40° 48° (NE) 22:36:47 437.305
AIST 1 04 May 22:30:29 22:33:04 15° 75° (ENE) 22:35:39
BEESAT 04 May 22:30:58 22:35:02 29° 31° (NNE) 22:39:07 436.000
UWE-3 04 May 22:33:40 22:36:22 15° 283° (WNW) 22:39:02 435.000/436.395/437.385
CUSAT 1 04 May 22:35:07 22:40:56 43° 38° (NE) 22:48:03 437.405
STARS 04 May 22:35:19 22:38:19 18° 5° (N) 22:41:19 437.465
GONETS M04 04 May 22:39:10 22:46:44 34° 72° (ENE) 22:54:16
JAS-2 04 May 22:40:41 22:45:06 16° 58° (ENE) 22:49:36 435.910
MOZHAYETS 4 04 May 22:43:38 22:46:44 18° 9° (N) 22:49:50
YUBILEINY 04 May 22:45:05 22:53:13 40° 336° (NNW) 23:01:21 435.215
ESTCUBE 1 04 May 22:45:24 22:49:51 58° 255° (WSW) 22:54:21 437.505/2401.250
CUBEBUG 2 04 May 22:47:26 22:49:08 12° 289° (WNW) 22:50:50 437.445
CUBEBUG 1 04 May 22:48:12 22:52:37 65° 253° (WSW) 22:57:05 437.445
UNISAT 6 04 May 22:53:18 22:57:33 42° 99° (E) 23:01:40 437.425
Cosmos 2504 04 May 22:53:28 23:00:23 49° 316° (NW) 23:07:32 435.465 / 435.565
CUBESAT XI-V 04 May 22:58:26 23:01:41 19° 350° (N) 23:04:56 437.345
ZACube-1 04 May 23:00:00 23:02:09 13° 286° (WNW) 23:04:16 437.345
DUCHIFAT 1 04 May 23:00:31 23:03:42 20° 85° (E) 23:06:52 145.980
QB50P2 04 May 23:03:59 23:07:24 23° 87° (E) 23:10:47 145.880/145.840
50 SAT 04 May 23:04:11 23:07:42 43° 258° (WSW) 23:11:14 437.505
POLYITAN 1 04 May 23:06:11 23:09:36 23° 87° (E) 23:12:59 437.675
Cosmos 2499 04 May 23:07:55 23:13:29 26° 69° (ENE) 23:19:14 435.465 / 435.565
POPSAT HIP 1 04 May 23:08:09 23:11:36 23° 87° (E) 23:15:00 437.405
TIGRISAT 04 May 23:10:04 23:14:24 50° 102° (ESE) 23:18:37 435.000
DX 1 04 May 23:10:50 23:15:08 50° 256° (WSW) 23:19:27 434.975-435.025
QB50P1 04 May 23:11:09 23:14:39 24° 88° (E) 23:18:08 145.935-145.965
UKube-1 04 May 23:13:04 23:17:21 53° 255° (WSW) 23:21:39 .
BEESAT 3 04 May 23:21:10 23:24:54 39° 195° (SSW) 23:28:37 437.485
VELOX 1 04 May 23:21:57 23:26:14 43° 260° (W) 23:30:32 145.980
PRISM 04 May 23:22:03 23:25:54 36° 315° (NW) 23:29:44 437.425
ITUPSAT 1 04 May 23:26:46 23:31:14 41° 44° (NE) 23:35:44 437.325
STRAND 1 04 May 23:32:28 23:36:51 29° 333° (NNW) 23:41:13 437.568
BEESAT 2 04 May 23:32:50 23:36:37 41° 193° (SSW) 23:40:24 435.950
BUGSAT 1 04 May 23:32:56 23:36:12 21° 85° (E) 23:39:26 437.445
SWISSCUBE 04 May 23:34:51 23:39:24 46° 47° (NE) 23:43:57 437.505
ANTELSAT 04 May 23:35:33 23:40:00 71° 110° (ESE) 23:44:19 437.575/2403.000
DANDE 04 May 23:38:27 23:43:35 46° 45° (NE) 23:50:16 436.750
SPROUT 04 May 23:38:43 23:42:59 57° 255° (WSW) 23:47:17 437.525
HUMSAT D 04 May 23:43:24 23:45:30 13° 284° (WNW) 23:47:35 437.325/437.525
NANOSAT C BR1 04 May 23:44:37 23:48:34 34° 96° (E) 23:52:27 145.865
AIST 2 04 May 23:45:22 23:49:20 44° 170° (S) 23:53:18 435.215
AISAT 04 May 23:55:06 23:59:02 29° 268° (W) 00:02:59 437.250
Oscar 19 04 May 23:59:08 00:01:50 14° 71° (ENE) 00:04:31 437.125/150
KKS-1 04 May 23:59:18 00:03:05 27° 32° (NNE) 00:06:52 437.445
RS-15 05 May 00:00:19 00:11:46 64° 152° (SSE) 00:23:45 29.354- 29.394
O/OREOS (USA 219) 05 May 00:01:55 00:05:25 22° 248° (WSW) 00:08:53 437.305
TISAT 1 05 May 00:04:04 00:08:20 72° 250° (WSW) 00:12:38 437.305
AIST 1 05 May 00:05:35 00:09:47 47° 98° (E) 00:14:02
BEESAT 05 May 00:07:35 00:12:16 59° 54° (NE) 00:16:58 436.000
PCSat 05 May 00:09:37 00:13:28 20° 242° (WSW) 00:17:18 145.827
STARS 05 May 00:10:01 00:13:36 24° 28° (NNE) 00:17:12 437.465
Gurwin Techsat 1B 05 May 00:12:50 00:13:55 11° 64° (ENE) 00:15:00 435.225
CUSAT 1 05 May 00:17:31 00:23:51 80° 60° (ENE) 00:31:38 437.405
MOZHAYETS 4 05 May 00:19:02 00:22:50 26° 32° (NNE) 00:26:37
ESTCUBE 1 05 May 00:24:21 00:27:37 19° 278° (W) 00:30:54 437.505/2401.250
JAS-2 05 May 00:25:45 00:32:34 35° 84° (E) 00:39:38 435.910
CUBEBUG 1 05 May 00:26:18 00:29:44 22° 275° (W) 00:33:12 437.445
UNISAT 6 05 May 00:30:08 00:34:32 63° 302° (WNW) 00:38:50 437.425
GONETS M04 05 May 00:33:38 00:42:24 70° 99° (E) 00:51:09
CUBESAT XI-V 05 May 00:34:31 00:37:50 20° 14° (NNE) 00:41:09 437.345
DUCHIFAT 1 05 May 00:35:58 00:40:13 63° 107° (ESE) 00:44:25 145.980
QB50P2 05 May 00:39:38 00:43:57 72° 109° (ESE) 00:48:12 145.880/145.840
50 SAT 05 May 00:40:45 00:42:26 13° 281° (W) 00:44:09 437.505
POLYITAN 1 05 May 00:41:50 00:46:08 72° 109° (ESE) 00:50:23 437.675
POPSAT HIP 1 05 May 00:43:48 00:48:06 73° 110° (ESE) 00:52:21 437.405
YUBILEINY 05 May 00:44:39 00:52:34 36° 7° (N) 01:00:28 435.215
QB50P1 05 May 00:46:48 00:51:07 76° 110° (ESE) 00:55:23 145.935-145.965
TIGRISAT 05 May 00:46:54 00:51:15 54° 305° (NW) 00:55:29 435.000
Cosmos 2504 05 May 00:49:17 00:55:39 32° 345° (NNW) 01:02:14 435.465 / 435.565
DX 1 05 May 00:49:29 00:52:21 17° 279° (W) 00:55:13 434.975-435.025
UKube-1 05 May 00:51:25 00:54:22 18° 278° (W) 00:57:20 .
PRISM 05 May 00:57:25 01:00:26 20° 338° (NNW) 01:03:27 437.425
Cosmos 2499 05 May 00:58:23 01:05:18 60° 96° (E) 01:12:32 435.465 / 435.565
BEESAT 3 05 May 00:58:48 01:01:56 23° 218° (SW) 01:05:04 437.485
VELOX 1 05 May 01:01:21 01:03:53 15° 283° (WNW) 01:06:25 145.980
ITUPSAT 1 05 May 01:04:08 01:08:56 81° 246° (WSW) 01:13:45 437.325
BUGSAT 1 05 May 01:08:06 01:12:22 66° 107° (ESE) 01:16:34 437.445
BEESAT 2 05 May 01:10:33 01:13:51 25° 216° (SW) 01:17:09 435.950
STRAND 1 05 May 01:11:02 01:14:56 23° 357° (N) 01:18:51 437.568
SWISSCUBE 05 May 01:12:23 01:17:09 70° 250° (WSW) 01:21:56 437.505
ANTELSAT 05 May 01:12:27 01:16:38 42° 312° (NW) 01:20:43 437.575/2403.000
SPROUT 05 May 01:16:48 01:19:52 19° 278° (W) 01:22:56 437.525
NANOSAT C BR1 05 May 01:20:24 01:24:41 75° 298° (WNW) 01:28:56 145.865
DANDE 05 May 01:21:23 01:26:56 87° 247° (WSW) 01:34:14 436.750
ITAMSAT 1 05 May 01:22:52 01:25:28 14° 71° (ENE) 01:28:04 435.822/435.867
AIST 2 05 May 01:23:28 01:27:24 42° 193° (SSW) 01:31:20 435.215
KKS-1 05 May 01:34:41 01:39:07 58° 54° (NE) 01:43:33 437.445
Oscar 19 05 May 01:37:51 01:42:43 37° 95° (E) 01:47:33 437.125/150
TISAT 1 05 May 01:41:16 01:44:42 23° 272° (W) 01:48:09 437.305
AIST 1 05 May 01:43:06 01:47:26 56° 302° (WNW) 01:51:48
STARS 05 May 01:45:01 01:49:20 49° 51° (NE) 01:53:38 437.465
BEESAT 05 May 01:45:36 01:50:15 51° 257° (WSW) 01:54:56 436.000
Gurwin Techsat 1B 05 May 01:51:09 01:55:46 29° 88° (E) 02:00:22 435.225
MOZHAYETS 4 05 May 01:54:57 01:59:25 56° 55° (NE) 02:03:55
AO-7 05 May 01:58:47 02:04:11 18° 67° (ENE) 02:09:34 29.400- 29.500
CUSAT 1 05 May 01:59:44 02:05:56 50° 263° (W) 02:13:19 437.405
Cosmos 2491 05 May 02:00:38 02:03:29 12° 28° (NNE) 02:06:20 435.465 / 435.565
UNISAT 6 05 May 02:07:00 02:10:46 27° 325° (NW) 02:14:27 437.425
CUBESAT XI-V 05 May 02:10:09 02:14:12 30° 37° (NE) 02:18:17 437.345
JAS-2 05 May 02:11:10 02:18:43 73° 108° (ESE) 02:26:38 435.910
RS-15 05 May 02:11:47 02:23:34 72° 183° (S) 02:35:48 29.354- 29.394
DUCHIFAT 1 05 May 02:11:50 02:15:54 44° 310° (NW) 02:19:56 145.980
QB50P2 05 May 02:15:38 02:19:40 40° 312° (NW) 02:23:39 145.880/145.840
POLYITAN 1 05 May 02:17:49 02:21:51 40° 312° (NW) 02:25:50 437.675
POPSAT HIP 1 05 May 02:19:46 02:23:47 40° 312° (NW) 02:27:46 437.405
QB50P1 05 May 02:22:46 02:26:46 39° 313° (NW) 02:30:43 145.935-145.965
TIGRISAT 05 May 02:23:43 02:27:21 25° 328° (NNW) 02:30:54 435.000
GONETS M04 05 May 02:30:50 02:39:38 63° 307° (NW) 02:48:24
PRISM 05 May 02:32:04 02:34:38 16° 1° (N) 02:37:11 437.425
YUBILEINY 05 May 02:43:16 02:51:41 48° 38° (NE) 03:00:03 435.215
ITUPSAT 1 05 May 02:43:22 02:47:28 28° 270° (W) 02:51:36 437.325
BUGSAT 1 05 May 02:43:39 02:47:42 43° 311° (NW) 02:51:41 437.445
Cosmos 2504 05 May 02:44:56 02:51:21 32° 16° (NNE) 02:58:05 435.465 / 435.565
STRAND 1 05 May 02:48:47 02:52:58 26° 21° (NNE) 02:57:10 437.568
ANTELSAT 05 May 02:49:12 02:52:35 22° 335° (NNW) 02:55:55 437.575/2403.000
BEESAT 2 05 May 02:49:55 02:50:34 10° 238° (WSW) 02:51:13 435.950
Cosmos 2499 05 May 02:51:29 02:58:33 65° 303° (WNW) 03:05:59 435.465 / 435.565
SWISSCUBE 05 May 02:51:53 02:55:46 24° 273° (W) 02:59:40 437.505
NANOSAT C BR1 05 May 02:56:20 03:00:03 30° 321° (NW) 03:03:45 145.865
ITAMSAT 1 05 May 03:01:40 03:06:30 37° 95° (E) 03:11:19 435.822/435.867
AIST 2 05 May 03:01:48 03:05:16 25° 216° (SW) 03:08:42 435.215
DANDE 05 May 03:04:19 03:09:32 37° 267° (W) 03:16:03 436.750
KKS-1 05 May 03:11:28 03:15:51 49° 257° (WSW) 03:20:16 437.445
Oscar 19 05 May 03:17:18 03:22:34 84° 298° (WNW) 03:27:48 437.125/150
STARS 05 May 03:21:19 03:25:44 59° 253° (WSW) 03:30:09 437.465
AIST 1 05 May 03:22:19 03:25:56 24° 325° (NW) 03:29:35
BEESAT 05 May 03:25:53 03:29:09 18° 280° (W) 03:32:25 436.000
Gurwin Techsat 1B 05 May 03:31:11 03:36:33 76° 111° (ESE) 03:41:54 435.225
MOZHAYETS 4 05 May 03:32:17 03:36:45 51° 258° (WSW) 03:41:14
CUSAT 1 05 May 03:42:08 03:47:02 23° 285° (WNW) 03:52:33 437.405
UNISAT 6 05 May 03:43:27 03:46:28 18° 348° (NNW) 03:49:26 437.425
CUBESAT XI-V 05 May 03:46:30 03:51:09 70° 59° (ENE) 03:55:49 437.345
DUCHIFAT 1 05 May 03:47:38 03:50:55 22° 332° (NNW) 03:54:10 145.980
Cosmos 2491 05 May 03:50:35 03:56:57 23° 57° (ENE) 04:03:18 435.465 / 435.565
QB50P2 05 May 03:51:30 03:54:43 21° 335° (NNW) 03:57:54 145.880/145.840
AO-7 05 May 03:51:53 03:59:39 40° 94° (E) 04:07:25 29.400- 29.500
POLYITAN 1 05 May 03:53:42 03:56:54 21° 335° (NNW) 04:00:05 437.675
POPSAT HIP 1 05 May 03:55:37 03:58:49 21° 335° (NNW) 04:02:00 437.405
JAS-2 05 May 03:56:27 04:03:46 62° 312° (NW) 04:11:30 435.910
QB50P1 05 May 03:58:36 04:01:46 20° 336° (NNW) 04:04:55 145.935-145.965
TIGRISAT 05 May 04:00:02 04:02:58 17° 352° (N) 04:05:51 435.000
PRISM 05 May 04:05:47 04:08:51 20° 24° (NNE) 04:11:56 437.425
HORYU 2 05 May 04:15:16 04:18:42 21° 86° (E) 04:22:06 437.375
BUGSAT 1 05 May 04:19:07 04:22:22 21° 333° (NNW) 04:25:35 437.445
RS-15 05 May 04:23:38 04:35:15 60° 214° (SW) 04:47:12 29.354- 29.394
ANTELSAT 05 May 04:25:17 04:28:09 17° 359° (N) 04:30:59 437.575/2403.000
STRAND 1 05 May 04:26:31 04:31:22 45° 44° (NE) 04:36:13 437.568
GONETS M04 05 May 04:30:02 04:38:16 40° 337° (NNW) 04:46:28
NANOSAT C BR1 05 May 04:31:58 04:34:51 18° 344° (NNW) 04:37:44 145.865
Cosmos 2504 05 May 04:39:30 04:46:35 49° 45° (NE) 04:54:05 435.465 / 435.565
YUBILEINY 05 May 04:40:51 04:49:39 84° 66° (ENE) 04:58:24 435.215
ITAMSAT 1 05 May 04:41:17 04:46:31 84° 299° (WNW) 04:51:44 435.822/435.867
AIST 2 05 May 04:41:33 04:42:36 11° 238° (WSW) 04:43:38 435.215
Cosmos 2499 05 May 04:46:32 04:53:06 37° 332° (NNW) 05:00:01 435.465 / 435.565
DANDE 05 May 04:47:52 04:51:13 16° 289° (WNW) 04:54:59 436.750
CUTE-I 05 May 04:48:30 04:51:09 14° 70° (ENE) 04:53:46 437.470
KKS-1 05 May 04:50:33 04:53:29 17° 280° (W) 04:56:26 437.445
GOMX 1 05 May 04:51:13 04:53:18 12° 62° (ENE) 04:55:22 467.674
Oscar 19 05 May 04:56:46 05:01:35 38° 321° (NW) 05:06:23 437.125/150
STARS 05 May 04:59:42 05:02:59 20° 276° (W) 05:06:17 437.465
AIST 1 05 May 05:02:17 05:05:04 16° 351° (N) 05:07:53
Gurwin Techsat 1B 05 May 05:11:19 05:16:25 47° 315° (NW) 05:21:30 435.225
MOZHAYETS 4 05 May 05:11:55 05:15:00 17° 281° (W) 05:18:04
UNISAT 6 05 May 05:18:56 05:21:58 18° 12° (NNE) 05:24:58 437.425
NOAA 15 05 May 05:22:08 05:26:21 23° 83° (E) 05:30:32 137.62
NOAA 18 05 May 05:22:13 05:26:22 21° 82° (E) 05:30:30 137.9125
DUCHIFAT 1 05 May 05:22:53 05:25:31 16° 356° (N) 05:28:08 145.980
CUBESAT XI-V 05 May 05:24:28 05:28:52 41° 263° (W) 05:33:19 437.345
QB50P2 05 May 05:26:45 05:29:23 16° 358° (N) 05:32:02 145.880/145.840
POLYITAN 1 05 May 05:28:56 05:31:35 16° 358° (N) 05:34:13 437.675
BRITE-PL 05 May 05:29:28 05:34:06 25° 80° (E) 05:38:43 437.365/2234.400
POPSAT HIP 1 05 May 05:30:49 05:33:28 16° 359° (N) 05:36:07 437.405
Cubesat XI-IV 05 May 05:33:15 05:37:18 21° 81° (E) 05:41:20 437.490
QB50P1 05 May 05:33:46 05:36:24 16° 359° (N) 05:39:02 145.935-145.965
HO-68 05 May 05:34:52 05:36:16 11° 53° (NE) 05:37:41 435.675
TIGRISAT 05 May 05:35:20 05:38:27 19° 16° (NNE) 05:41:31 435.000
PRISM 05 May 05:39:34 05:43:25 39° 47° (NE) 05:47:19 437.425
JAS-2 05 May 05:41:17 05:47:57 40° 336° (NNW) 05:55:03 435.910
Cosmos 2491 05 May 05:43:30 05:51:48 48° 85° (E) 06:00:06 435.465 / 435.565
AO-7 05 May 05:45:12 05:53:36 81° 121° (ESE) 06:02:00 29.400- 29.500
HORYU 2 05 May 05:51:39 05:56:06 65° 109° (ESE) 06:00:31 437.375
BUGSAT 1 05 May 05:54:00 05:56:37 16° 356° (N) 05:59:14 437.445
ANTELSAT 05 May 06:00:22 06:03:42 21° 22° (NNE) 06:06:59 437.575/2403.000
STRAND 1 05 May 06:05:18 06:10:25 78° 247° (WSW) 06:15:35 437.568
LilacSat-2 05 May 06:06:16 06:09:26 23° 89° (E) 06:12:32 437.200
NANOSAT C BR1 05 May 06:06:44 06:09:24 16° 7° (N) 06:12:05 145.865
DOVE 4 05 May 06:11:45 06:15:21 18° 74° (ENE) 06:18:51 437.250
SO-50 05 May 06:14:14 06:15:06 10° 116° (ESE) 06:15:59 436.795
ITAMSAT 1 05 May 06:20:54 06:25:41 39° 322° (NW) 06:30:29 435.822/435.867
CUTE-I 05 May 06:27:53 06:32:49 36° 94° (E) 06:37:44 437.470
GOMX 1 05 May 06:28:20 06:33:12 31° 86° (E) 06:37:58 467.674
GONETS M04 05 May 06:29:37 06:37:40 36° 8° (N) 06:45:39
M-CUBED/EXP-1 PRIME 05 May 06:31:24 06:32:49 11° 83° (E) 06:34:11 437.505
Cosmos 2504 05 May 06:33:18 06:40:41 85° 253° (WSW) 06:48:33 435.465 / 435.565
RS-15 05 May 06:35:20 06:45:44 36° 244° (WSW) 06:56:19 29.354- 29.394
Oscar 19 05 May 06:35:48 06:39:58 25° 345° (NNW) 06:44:09 437.125/150
CINEMA 3 05 May 06:37:08 06:39:05 12° 68° (ENE) 06:40:59 145.822/145.860
YUBILEINY 05 May 06:37:53 06:46:06 49° 274° (W) 06:54:19 435.215
AIST 1 05 May 06:41:24 06:44:24 17° 17° (NNE) 06:47:24
Cosmos 2499 05 May 06:42:09 06:48:28 31° 3° (N) 06:55:09 435.465 / 435.565
AUBIESAT-1 05 May 06:47:31 06:49:18 12° 85° (E) 06:51:02 437.475
Gurwin Techsat 1B 05 May 06:51:08 06:55:35 28° 339° (NNW) 07:00:01 435.225
UNISAT 6 05 May 06:53:50 06:57:41 28° 35° (NE) 07:01:26 437.425
DUCHIFAT 1 05 May 06:57:04 07:00:01 19° 19° (NNE) 07:02:59 145.980
QB50P2 05 May 07:00:58 07:04:02 19° 21° (NNE) 07:07:06 145.880/145.840
NOAA 15 05 May 07:01:52 07:07:11 61° 107° (ESE) 07:12:28 137.62
NOAA 18 05 May 07:02:50 07:08:14 56° 106° (ESE) 07:13:37 137.9125
POLYITAN 1 05 May 07:03:09 07:06:14 20° 21° (NNE) 07:09:18 437.675
CUBESAT XI-V 05 May 07:05:00 07:07:32 14° 286° (WNW) 07:10:05 437.345
POPSAT HIP 1 05 May 07:05:01 07:08:06 20° 22° (NNE) 07:11:10 437.405
QB50P1 05 May 07:07:55 07:11:02 20° 23° (NNE) 07:14:08 145.935-145.965
BRITE-PL 05 May 07:07:57 07:13:36 62° 103° (ESE) 07:19:17 437.365/2234.400
TIGRISAT 05 May 07:10:14 07:14:12 30° 39° (NE) 07:18:05 435.000
Cubesat XI-IV 05 May 07:13:15 07:18:31 57° 105° (ESE) 07:23:47 437.490
PRISM 05 May 07:14:31 07:18:38 73° 250° (WSW) 07:22:48 437.425
HO-68 05 May 07:21:07 07:26:59 26° 81° (E) 07:32:49 435.675
JAS-2 05 May 07:25:24 07:31:40 34° 1° (N) 07:38:23 435.910
CANX-2 05 May 07:26:07 07:29:11 19° 83° (E) 07:32:15 2200.000
BUGSAT 1 05 May 07:27:51 07:30:50 19° 19° (NNE) 07:33:48 437.445
HORYU 2 05 May 07:28:23 07:32:39 46° 311° (NW) 07:36:53 437.375
ANTELSAT 05 May 07:35:25 07:39:36 37° 45° (NE) 07:43:42 437.575/2403.000
AO-7 05 May 07:38:12 07:46:21 62° 327° (NNW) 07:54:31 29.400- 29.500
Cosmos 2491 05 May 07:39:18 07:48:13 86° 292° (WNW) 07:57:09 435.465 / 435.565
LilacSat-2 05 May 07:40:26 07:44:19 83° 110° (ESE) 07:48:08 437.200
NANOSAT C BR1 05 May 07:40:41 07:44:04 23° 30° (NNE) 07:47:27 145.865
STRAND 1 05 May 07:45:59 07:50:23 28° 271° (W) 07:54:48 437.568
DOVE 4 05 May 07:49:11 07:54:20 48° 98° (E) 07:59:15 437.250
SO-50 05 May 07:50:13 07:54:12 25° 138° (SE) 07:58:08 436.795
Oscar 11 05 May 07:55:38 07:57:04 11° 72° (ENE) 07:58:30 145.826/435.025
CUTE 1.7 + AOD 2 05 May 07:58:15 08:01:50 26° 89° (E) 08:05:25 437.475
ITAMSAT 1 05 May 08:00:05 08:04:15 25° 346° (NNW) 08:08:26 435.822/435.867
M-CUBED/EXP-1 PRIME 05 May 08:04:44 08:08:40 35° 107° (ESE) 08:12:17 437.505
GOMX 1 05 May 08:06:28 08:12:03 79° 110° (ESE) 08:17:29 467.674
CUTE-I 05 May 08:08:05 08:13:27 87° 300° (WNW) 08:18:49 437.470
FUNcube-1 05 May 08:10:56 08:12:41 12° 73° (ENE) 08:14:26 145.935
CINEMA 3 05 May 08:13:19 08:17:44 34° 92° (E) 08:21:56 145.822/145.860
Oscar 19 05 May 08:14:02 08:18:07 24° 9° (N) 08:22:12 437.125/150
COMPASS 1 05 May 08:19:06 08:22:33 24° 88° (E) 08:25:59 437.405
AIST 1 05 May 08:19:27 08:23:22 30° 42° (NE) 08:27:18
SEEDS 05 May 08:20:39 08:24:21 29° 92° (E) 08:28:03 437.485
AUBIESAT-1 05 May 08:21:04 08:25:00 39° 109° (ESE) 08:28:39 437.475
Cosmos 2504 05 May 08:26:50 08:33:29 39° 278° (W) 08:40:31 435.465 / 435.565
GONETS M04 05 May 08:28:14 08:36:47 49° 39° (NE) 08:45:15
UNISAT 6 05 May 08:29:24 08:33:55 62° 58° (ENE) 08:38:20 437.425
UWE-3 05 May 08:29:27 08:32:38 19° 82° (E) 08:35:43 435.000/436.395/437.385
Gurwin Techsat 1B 05 May 08:30:12 08:34:22 24° 3° (N) 08:38:31 435.225
DUCHIFAT 1 05 May 08:31:03 08:34:51 32° 42° (NE) 08:38:39 145.980
YUBILEINY 05 May 08:34:40 08:41:00 23° 302° (WNW) 08:47:20 435.215
QB50P2 05 May 08:35:06 08:39:01 35° 44° (NE) 08:42:55 145.880/145.840
Cosmos 2499 05 May 08:36:54 08:43:46 40° 33° (NNE) 08:51:04 435.465 / 435.565
POLYITAN 1 05 May 08:37:17 08:41:13 35° 44° (NE) 08:45:07 437.675
POPSAT HIP 1 05 May 08:39:08 08:43:03 35° 44° (NE) 08:46:59 437.405
NOAA 15 05 May 08:41:50 08:47:04 57° 310° (NW) 08:52:17 137.62
QB50P1 05 May 08:42:03 08:46:00 36° 45° (NE) 08:49:57 145.935-145.965
CUBEBUG 2 05 May 08:42:31 08:46:18 27° 88° (E) 08:49:59 437.445
NOAA 18 05 May 08:43:41 08:49:07 63° 309° (NW) 08:54:30 137.9125
TIGRISAT 05 May 08:45:56 08:50:30 73° 60° (ENE) 08:54:57 435.000
BRITE-PL 05 May 08:46:36 08:52:09 58° 306° (NW) 08:57:45 437.365/2234.400
AAUSAT CUBESAT 2 05 May 08:47:12 08:50:56 31° 93° (E) 08:54:38 437.432
RS-15 05 May 08:47:48 08:54:17 17° 274° (W) 09:00:51 29.354- 29.394
PRISM 05 May 08:51:22 08:54:39 22° 272° (W) 08:57:58 437.425
Cubesat XI-IV 05 May 08:53:31 08:58:47 60° 308° (NW) 09:04:01 437.490
ZACube-1 05 May 08:53:59 08:57:16 21° 84° (E) 09:00:29 437.345
BUGSAT 1 05 May 09:01:31 09:05:20 33° 42° (NE) 09:09:10 437.445
CANX-2 05 May 09:01:41 09:05:54 60° 106° (ESE) 09:10:05 2200.000
HORYU 2 05 May 09:04:59 09:08:31 24° 334° (NNW) 09:12:03 437.375
JAS-2 05 May 09:08:59 09:15:24 41° 27° (NNE) 09:22:25 435.910
HO-68 05 May 09:09:08 09:16:14 59° 106° (ESE) 09:23:19 435.675
ANTELSAT 05 May 09:11:33 09:16:08 84° 247° (WSW) 09:20:37 437.575/2403.000
LilacSat-2 05 May 09:14:57 09:18:25 32° 313° (NW) 09:21:50 437.200
NANOSAT C BR1 05 May 09:15:03 09:19:11 49° 53° (NE) 09:23:19 145.865
DOVE 4 05 May 09:27:01 09:32:18 67° 302° (WNW) 09:37:21 437.250
SO-50 05 May 09:29:17 09:33:55 42° 161° (SSE) 09:38:29 436.795
AO-7 05 May 09:30:30 09:38:20 48° 354° (N) 09:46:11 29.400- 29.500
Oscar 11 05 May 09:30:33 09:34:32 34° 95° (E) 09:38:29 145.826/435.025
STRAND 1 05 May 09:30:51 09:31:22 10° 295° (WNW) 09:31:55 437.568
HUMSAT D 05 May 09:33:45 09:36:28 17° 81° (E) 09:39:11 437.325/437.525
CUTE 1.7 + AOD 2 05 May 09:34:02 09:38:17 84° 110° (ESE) 09:42:32 437.475
Cosmos 2491 05 May 09:37:36 09:46:10 49° 321° (NW) 09:54:45 435.465 / 435.565
DELFI C3 05 May 09:38:28 09:41:49 25° 90° (E) 09:45:12 145.870
ITAMSAT 1 05 May 09:38:28 09:42:34 24° 10° (N) 09:46:40 435.822/435.867
M-CUBED/EXP-1 PRIME 05 May 09:39:18 09:43:37 77° 310° (NW) 09:47:33 437.505
GOMX 1 05 May 09:44:42 09:49:59 46° 313° (NW) 09:55:09 467.674
FUNcube-1 05 May 09:46:13 09:50:13 37° 96° (E) 09:54:08 145.935
CUTE-I 05 May 09:48:17 09:53:14 40° 321° (NW) 09:58:11 437.470
CINEMA 3 05 May 09:50:31 09:55:23 82° 295° (WNW) 09:59:59 145.822/145.860
Oscar 19 05 May 09:51:46 09:56:25 34° 33° (NNE) 10:01:04 437.125/150
COMPASS 1 05 May 09:54:34 09:58:44 80° 109° (ESE) 10:02:56 437.405
AUBIESAT-1 05 May 09:55:36 09:59:50 70° 311° (NW) 10:03:42 437.475
SEEDS 05 May 09:56:20 10:00:33 86° 299° (WNW) 10:04:46 437.485
AIST 1 05 May 09:57:11 10:01:38 77° 65° (ENE) 10:06:05
UWE-3 05 May 10:05:40 10:10:01 60° 105° (ESE) 10:14:13 435.000/436.395/437.385
DUCHIFAT 1 05 May 10:05:57 10:10:14 84° 67° (ENE) 10:14:32 145.980
UNISAT 6 05 May 10:06:28 10:10:53 45° 260° (W) 10:15:11 437.425
Gurwin Techsat 1B 05 May 10:08:37 10:13:13 30° 27° (NNE) 10:17:49 435.225
QB50P2 05 May 10:10:16 10:14:35 87° 240° (WSW) 10:18:55 145.880/145.840
POLYITAN 1 05 May 10:12:28 10:16:48 86° 246° (WSW) 10:21:07 437.675
POPSAT HIP 1 05 May 10:14:18 10:18:38 86° 250° (WSW) 10:22:57 437.405
QB50P1 05 May 10:17:16 10:21:35 83° 248° (WSW) 10:25:55 145.935-145.965
CUBEBUG 2 05 May 10:19:06 10:23:36 84° 110° (ESE) 10:27:55 437.445
Cosmos 2504 05 May 10:20:32 10:24:57 17° 304° (NW) 10:29:29 435.465 / 435.565
50 SAT 05 May 10:21:25 10:21:46 10° 75° (ENE) 10:22:07 437.505
NOAA 15 05 May 10:21:35 10:26:13 31° 334° (NNW) 10:30:49 137.62
AAUSAT CUBESAT 2 05 May 10:22:42 10:26:52 81° 297° (WNW) 10:31:03 437.432
CUBEBUG 1 05 May 10:23:03 10:25:06 13° 74° (ENE) 10:27:10 437.445
TIGRISAT 05 May 10:23:17 10:27:32 38° 263° (W) 10:31:45 435.000
ESTCUBE 1 05 May 10:23:35 10:26:21 16° 78° (ENE) 10:29:05 437.505/2401.250
NOAA 18 05 May 10:24:20 10:29:13 34° 333° (NNW) 10:34:04 137.9125
BRITE-PL 05 May 10:25:04 10:29:56 31° 329° (NNW) 10:34:53 437.365/2234.400
GONETS M04 05 May 10:25:48 10:34:42 87° 69° (ENE) 10:43:29
ZACube-1 05 May 10:30:04 10:34:22 67° 107° (ESE) 10:38:34 437.345
Cosmos 2499 05 May 10:30:43 10:38:09 71° 61° (ENE) 10:46:08 435.465 / 435.565
YUBILEINY 05 May 10:31:41 10:34:29 12° 331° (NNW) 10:37:17 435.215
Cubesat XI-IV 05 May 10:33:35 10:38:15 32° 332° (NNW) 10:42:54 437.490
BUGSAT 1 05 May 10:36:08 10:40:26 86° 68° (ENE) 10:44:44 437.445
CANX-2 05 May 10:37:43 10:41:45 45° 308° (NW) 10:45:48 2200.000
HORYU 2 05 May 10:40:59 10:44:00 18° 357° (N) 10:47:00 437.375
DX 1 05 May 10:44:51 10:47:24 15° 78° (ENE) 10:49:57 434.975-435.025
UKube-1 05 May 10:46:17 10:48:30 14° 77° (ENE) 10:50:43 .
LilacSat-2 05 May 10:49:27 10:51:54 16° 336° (NNW) 10:54:21 437.200
ANTELSAT 05 May 10:49:31 10:53:27 28° 270° (W) 10:57:20 437.575/2403.000
NANOSAT C BR1 05 May 10:50:44 10:54:58 56° 255° (WSW) 10:59:13 145.865
JAS-2 05 May 10:52:58 10:59:42 68° 52° (NE) 11:07:13 435.910
HO-68 05 May 10:57:11 11:04:19 71° 311° (NW) 11:11:26 435.675
VELOX 1 05 May 10:57:22 11:00:35 19° 82° (E) 11:03:48 145.980
DOVE 4 05 May 11:04:46 11:09:26 32° 325° (NW) 11:13:58 437.250
Oscar 11 05 May 11:06:44 11:11:04 76° 298° (WNW) 11:15:23 145.826/435.025
HUMSAT D 05 May 11:08:59 11:13:02 54° 104° (ESE) 11:17:03 437.325/437.525
SO-50 05 May 11:09:14 11:13:57 48° 185° (S) 11:18:34 436.795
CUTE 1.7 + AOD 2 05 May 11:10:04 11:13:56 35° 314° (NW) 11:17:47 437.475
SPROUT 05 May 11:10:47 11:13:04 14° 76° (ENE) 11:15:22 437.525
DELFI C3 05 May 11:13:14 11:17:15 87° 113° (ESE) 11:21:16 145.870
M-CUBED/EXP-1 PRIME 05 May 11:13:54 11:17:52 36° 333° (NNW) 11:21:34 437.505
ITAMSAT 1 05 May 11:16:24 11:21:03 35° 34° (NE) 11:25:44 435.822/435.867
AO-7 05 May 11:22:12 11:30:09 53° 20° (NNE) 11:38:07 29.400- 29.500
FUNcube-1 05 May 11:22:32 11:26:49 69° 300° (WNW) 11:30:59 145.935
GOMX 1 05 May 11:22:38 11:27:10 27° 336° (NNW) 11:31:41 467.674
CINEMA 3 05 May 11:27:47 11:32:09 34° 319° (NW) 11:36:21 145.822/145.860
CUTE-I 05 May 11:28:03 11:32:23 26° 345° (NNW) 11:36:42 437.470
AISAT 05 May 11:29:44 11:33:37 28° 91° (E) 11:37:29 437.250
Oscar 19 05 May 11:30:04 11:35:15 69° 57° (ENE) 11:40:29 437.125/150
AUBIESAT-1 05 May 11:30:07 11:33:58 33° 335° (NNW) 11:37:34 437.475
COMPASS 1 05 May 11:30:20 11:34:09 36° 313° (NW) 11:37:58 437.405
SEEDS 05 May 11:32:15 11:35:59 32° 316° (NW) 11:39:43 437.485
AIST 1 05 May 11:35:02 11:39:01 33° 269° (W) 11:43:00
AO-85 05 May 11:35:37 11:37:14 11° 114° (ESE) 11:38:51 145.980
Cosmos 2491 05 May 11:37:13 11:45:18 37° 352° (N) 11:53:22 435.465 / 435.565
UWE-3 05 May 11:42:17 11:46:30 46° 308° (NW) 11:50:35 435.000/436.395/437.385
DUCHIFAT 1 05 May 11:42:36 11:46:25 31° 266° (W) 11:50:16 145.980
UNISAT 6 05 May 11:46:01 11:48:43 15° 283° (WNW) 11:51:23 437.425
QB50P2 05 May 11:47:15 11:50:58 28° 269° (W) 11:54:41 145.880/145.840
Gurwin Techsat 1B 05 May 11:47:19 11:52:32 57° 51° (NE) 11:57:45 435.225
POLYITAN 1 05 May 11:49:29 11:53:11 27° 269° (W) 11:56:53 437.675
POPSAT HIP 1 05 May 11:51:18 11:55:00 27° 269° (W) 11:58:42 437.405
50 SAT 05 May 11:53:16 11:56:40 34° 98° (E) 12:00:03 437.505
QB50P1 05 May 11:54:21 11:57:59 26° 270° (W) 12:01:37 145.935-145.965
CUBEBUG 2 05 May 11:55:54 12:00:01 36° 315° (NW) 12:04:00 437.445
AAUSAT CUBESAT 2 05 May 11:58:24 12:02:02 30° 318° (NW) 12:05:42 437.432
CUBEBUG 1 05 May 11:58:29 12:02:40 38° 97° (E) 12:06:51 437.445
ESTCUBE 1 05 May 11:59:54 12:04:18 45° 100° (E) 12:08:41 437.505/2401.250
NOAA 15 05 May 12:00:42 12:04:54 24° 358° (N) 12:09:06 137.62
BRITE-PL 05 May 12:02:57 12:07:13 23° 353° (N) 12:11:35 437.365/2234.400
TIGRISAT 05 May 12:03:22 12:05:30 13° 286° (WNW) 12:07:38 435.000
NOAA 18 05 May 12:04:21 12:08:50 26° 357° (N) 12:13:18 137.9125
ZACube-1 05 May 12:06:32 12:10:37 42° 310° (NW) 12:14:36 437.345
BUGSAT 1 05 May 12:12:30 12:16:18 30° 267° (W) 12:20:07 437.445
Cubesat XI-IV 05 May 12:13:03 12:17:15 24° 356° (N) 12:21:28 437.490
CANX-2 05 May 12:13:43 12:16:57 22° 331° (NNW) 12:20:10 2200.000
HORYU 2 05 May 12:16:03 12:19:26 21° 21° (NNE) 12:22:48 437.375
DX 1 05 May 12:20:28 12:24:43 44° 101° (E) 12:28:57 434.975-435.025
UKube-1 05 May 12:21:35 12:25:44 40° 100° (E) 12:29:52 .
GONETS M04 05 May 12:22:50 12:31:05 47° 275° (W) 12:39:16
LilacSat-2 05 May 12:23:18 12:25:03 13° 359° (N) 12:26:46 437.200
Cosmos 2499 05 May 12:24:03 12:31:17 56° 266° (W) 12:39:03 435.465 / 435.565
NANOSAT C BR1 05 May 12:28:37 12:31:37 18° 278° (W) 12:34:37 145.865
VELOX 1 05 May 12:33:34 12:38:01 56° 106° (ESE) 12:42:26 145.980
JAS-2 05 May 12:38:21 12:45:00 61° 258° (WSW) 12:52:27 435.910
DOVE 4 05 May 12:42:01 12:46:02 22° 348° (NNW) 12:49:57 437.250
Oscar 11 05 May 12:43:03 12:46:50 30° 320° (NW) 12:50:37 145.826/435.025
HUMSAT D 05 May 12:44:45 12:48:44 48° 306° (NW) 12:52:41 437.325/437.525
HO-68 05 May 12:44:47 12:51:28 44° 337° (NNW) 12:58:08 435.675
CUTE 1.7 + AOD 2 05 May 12:45:59 12:48:57 19° 337° (NNW) 12:51:54 437.475
SPROUT 05 May 12:46:04 12:50:12 42° 99° (E) 12:54:18 437.525
M-CUBED/EXP-1 PRIME 05 May 12:48:02 12:51:43 26° 356° (N) 12:55:12 437.505
DELFI C3 05 May 12:48:20 12:51:54 32° 315° (NW) 12:55:30 145.870
SO-50 05 May 12:49:28 12:53:53 35° 209° (SSW) 12:58:13 436.795
ITUPSAT 1 05 May 12:50:55 12:52:52 12° 71° (ENE) 12:54:48 437.325
ITAMSAT 1 05 May 12:54:56 13:00:06 72° 57° (ENE) 13:05:18 435.822/435.867
SWISSCUBE 05 May 12:58:26 13:00:59 14° 75° (ENE) 13:03:31 437.505
FUNcube-1 05 May 12:58:58 13:02:38 28° 322° (NW) 13:06:13 145.935
GOMX 1 05 May 12:59:51 13:04:00 22° 360° (N) 13:08:08 467.674
AUBIESAT-1 05 May 13:04:09 13:07:44 26° 358° (N) 13:11:08 437.475
CINEMA 3 05 May 13:04:43 13:08:19 21° 343° (NNW) 13:11:49 145.822/145.860
COMPASS 1 05 May 13:05:59 13:08:55 19° 336° (NNW) 13:11:50 437.405
AISAT 05 May 13:06:11 13:10:44 84° 115° (ESE) 13:15:14 437.250
CUTE-I 05 May 13:07:02 13:11:16 25° 9° (N) 13:15:30 437.470
SEEDS 05 May 13:08:00 13:10:49 18° 339° (NNW) 13:13:39 437.485
TISAT 1 05 May 13:09:18 13:13:06 30° 93° (E) 13:16:51 437.305
Oscar 19 05 May 13:09:53 13:14:54 47° 260° (W) 13:19:58 437.125/150
AO-85 05 May 13:11:54 13:16:20 26° 136° (SE) 13:20:35 145.980
AIST 1 05 May 13:14:06 13:15:28 11° 292° (WNW) 13:16:51
AO-7 05 May 13:14:10 13:22:28 78° 47° (NE) 13:30:49 29.400- 29.500
UWE-3 05 May 13:18:51 13:22:16 22° 331° (NNW) 13:25:36 435.000/436.395/437.385
DUCHIFAT 1 05 May 13:23:03 13:23:30 10° 289° (WNW) 13:23:59 145.980
50 SAT 05 May 13:27:05 13:30:44 64° 300° (WNW) 13:34:22 437.505
Gurwin Techsat 1B 05 May 13:27:19 13:32:35 60° 254° (WSW) 13:37:54 435.225
BEESAT 05 May 13:30:56 13:34:23 19° 82° (E) 13:37:47 436.000
CUBEBUG 2 05 May 13:32:31 13:35:46 20° 338° (NNW) 13:38:59 437.445
AAUSAT CUBESAT 2 05 May 13:33:55 13:36:38 17° 341° (NNW) 13:39:22 437.432
CUBEBUG 1 05 May 13:34:52 13:39:20 72° 299° (WNW) 13:43:47 437.445
Cosmos 2491 05 May 13:36:28 13:44:44 40° 23° (NNE) 13:52:57 435.465 / 435.565
ESTCUBE 1 05 May 13:36:51 13:41:21 62° 303° (WNW) 13:45:50 437.505/2401.250
CUSAT 1 05 May 13:38:16 13:42:13 25° 78° (ENE) 13:47:02 437.405
NOAA 15 05 May 13:39:04 13:43:33 29° 22° (NNE) 13:48:03 137.62
BRITE-PL 05 May 13:40:00 13:44:22 25° 17° (NNE) 13:48:53 437.365/2234.400
ZACube-1 05 May 13:42:55 13:46:11 21° 333° (NNW) 13:49:22 437.345
NOAA 18 05 May 13:43:40 13:48:24 31° 21° (NNE) 13:53:08 137.9125
CANX-2 05 May 13:49:13 13:51:41 15° 354° (N) 13:54:10 2200.000
HORYU 2 05 May 13:51:03 13:55:12 38° 44° (NE) 13:59:19 437.375
Cubesat XI-IV 05 May 13:51:44 13:56:11 28° 20° (NNE) 14:00:38 437.490
LilacSat-2 05 May 13:55:48 13:58:10 16° 22° (NNE) 14:00:32 437.200
DX 1 05 May 13:56:46 14:01:09 62° 304° (NW) 14:05:31 434.975-435.025
UKube-1 05 May 13:57:44 14:02:06 67° 301° (WNW) 14:06:25 .
VELOX 1 05 May 14:10:12 14:14:34 52° 308° (NW) 14:18:55 145.980
YUBILEINY 05 May 14:16:36 14:19:42 12° 31° (NNE) 14:22:48 435.215
Cosmos 2499 05 May 14:17:19 14:23:06 25° 292° (WNW) 14:29:11 435.465 / 435.565
DOVE 4 05 May 14:18:24 14:22:25 22° 12° (NNE) 14:26:23 437.250
Oscar 11 05 May 14:19:07 14:22:02 18° 343° (NNW) 14:24:57 145.826/435.025
GONETS M04 05 May 14:19:38 14:25:54 23° 303° (WNW) 14:32:09
HUMSAT D 05 May 14:20:34 14:23:45 22° 329° (NNW) 14:26:55 437.325/437.525
CUTE 1.7 + AOD 2 05 May 14:21:11 14:23:37 15° 0° (N) 14:26:02 437.475
M-CUBED/EXP-1 PRIME 05 May 14:21:36 14:25:31 30° 18° (NNE) 14:29:14 437.505
SPROUT 05 May 14:22:07 14:26:25 64° 301° (WNW) 14:30:41 437.525
DELFI C3 05 May 14:23:20 14:25:58 17° 337° (NNW) 14:28:36 145.870
JAS-2 05 May 14:25:56 14:31:36 27° 284° (WNW) 14:37:47 435.910
ITUPSAT 1 05 May 14:27:47 14:32:10 35° 95° (E) 14:36:33 437.325
O/OREOS (USA 219) 05 May 14:27:58 14:31:39 24° 114° (ESE) 14:35:20 437.305
SO-50 05 May 14:30:08 14:33:22 18° 231° (SW) 14:36:32 436.795
HO-68 05 May 14:31:41 14:38:07 38° 2° (N) 14:44:34 435.675
ITAMSAT 1 05 May 14:34:59 14:39:57 44° 260° (W) 14:44:56 435.822/435.867
FUNcube-1 05 May 14:35:05 14:37:53 17° 345° (NNW) 14:40:39 145.935
SWISSCUBE 05 May 14:35:36 14:40:07 40° 98° (E) 14:44:37 437.505
GOMX 1 05 May 14:36:18 14:40:48 27° 23° (NNE) 14:45:20 467.674
AUBIESAT-1 05 May 14:37:36 14:41:29 30° 20° (NNE) 14:45:09 437.475
CINEMA 3 05 May 14:40:48 14:44:13 19° 6° (N) 14:47:31 145.822/145.860
COMPASS 1 05 May 14:40:59 14:43:18 15° 359° (N) 14:45:38 437.405
AISAT 05 May 14:42:50 14:47:00 38° 316° (NW) 14:51:10 437.250
SEEDS 05 May 14:42:57 14:45:20 15° 3° (N) 14:47:42 437.485
TISAT 1 05 May 14:44:57 14:49:15 85° 298° (WNW) 14:53:30 437.305
CUTE-I 05 May 14:45:31 14:50:18 35° 33° (NNE) 14:55:06 437.470
DANDE 05 May 14:47:42 14:51:09 28° 86° (E) 14:55:31 436.750
KKS-1 05 May 14:48:01 14:50:54 16° 80° (E) 14:53:46 437.445
AO-85 05 May 14:50:59 14:56:05 44° 159° (SSE) 15:00:54 145.980
Oscar 19 05 May 14:52:05 14:55:32 18° 283° (WNW) 14:59:01 437.125/150
UWE-3 05 May 14:54:51 14:57:36 16° 355° (N) 15:00:19 435.000/436.395/437.385
STARS 05 May 14:56:55 14:59:03 13° 75° (ENE) 15:01:11 437.465
50 SAT 05 May 15:01:07 15:04:05 23° 322° (NW) 15:07:03 437.505
PCSat 05 May 15:05:10 15:08:53 19° 117° (ESE) 15:12:37 145.827
AO-7 05 May 15:07:37 15:15:47 58° 253° (WSW) 15:24:01 29.400- 29.500
CUBEBUG 2 05 May 15:08:20 15:11:13 17° 2° (N) 15:14:01 437.445
BEESAT 05 May 15:08:30 15:13:12 55° 105° (ESE) 15:17:54 436.000
AAUSAT CUBESAT 2 05 May 15:08:36 15:10:56 15° 4° (N) 15:13:15 437.432
Gurwin Techsat 1B 05 May 15:09:28 15:13:37 23° 278° (W) 15:17:49 435.225
CUBEBUG 1 05 May 15:11:19 15:15:13 30° 322° (NW) 15:19:06 437.445
MOZHAYETS 4 05 May 15:12:34 15:15:51 19° 81° (E) 15:19:08
ESTCUBE 1 05 May 15:13:48 15:17:39 28° 326° (NW) 15:21:30 437.505/2401.250
BRITE-PL 05 May 15:16:51 15:21:48 39° 40° (NE) 15:27:01 437.365/2234.400
NOAA 15 05 May 15:17:28 15:22:35 49° 45° (NE) 15:27:42 137.62
CUSAT 1 05 May 15:18:35 15:23:19 67° 105° (ESE) 15:29:35 437.405
ZACube-1 05 May 15:18:41 15:21:19 16° 357° (N) 15:23:54 437.345
NOAA 18 05 May 15:23:02 15:28:21 52° 45° (NE) 15:33:40 137.9125
CANX-2 05 May 15:23:35 15:26:20 17° 17° (NNE) 15:29:05 2200.000
HORYU 2 05 May 15:27:04 15:31:34 83° 247° (WSW) 15:36:04 437.375
LilacSat-2 05 May 15:28:13 15:31:37 30° 45° (NE) 15:35:01 437.200
Cubesat XI-IV 05 May 15:30:23 15:35:28 46° 44° (NE) 15:40:33 437.490
DX 1 05 May 15:33:06 15:36:51 28° 326° (NNW) 15:40:36 434.975-435.025
UKube-1 05 May 15:33:56 15:37:42 29° 324° (NW) 15:41:27 .
Cosmos 2491 05 May 15:34:33 15:43:24 63° 53° (NE) 15:52:09 435.465 / 435.565
VELOX 1 05 May 15:46:45 15:50:25 25° 331° (NNW) 15:54:05 145.980
Oscar 11 05 May 15:54:17 15:56:57 16° 6° (N) 15:59:37 145.826/435.025
DOVE 4 05 May 15:54:19 15:59:01 33° 35° (NE) 16:03:41 437.250
M-CUBED/EXP-1 PRIME 05 May 15:55:08 15:59:35 52° 40° (NE) 16:03:46 437.505
CUTE 1.7 + AOD 2 05 May 15:55:17 15:58:16 19° 24° (NNE) 16:01:15 437.475
HUMSAT D 05 May 15:55:54 15:58:18 15° 352° (N) 16:00:40 437.325/437.525
DELFI C3 05 May 15:57:38 15:59:40 14° 0° (N) 16:01:42 145.870
SPROUT 05 May 15:58:14 16:01:54 27° 324° (NW) 16:05:32 437.525
ITUPSAT 1 05 May 16:05:42 16:10:31 83° 299° (WNW) 16:15:19 437.325
O/OREOS (USA 219) 05 May 16:05:54 16:10:26 61° 137° (SE) 16:14:58 437.305
YUBILEINY 05 May 16:06:46 16:13:16 24° 60° (ENE) 16:19:47 435.215
FUNcube-1 05 May 16:10:14 16:12:55 16° 9° (N) 16:15:34 145.935
AUBIESAT-1 05 May 16:11:07 16:15:31 55° 41° (NE) 16:19:40 437.475
Cosmos 2499 05 May 16:11:27 16:13:35 11° 319° (NW) 16:15:45 435.465 / 435.565
GOMX 1 05 May 16:12:51 16:18:00 46° 47° (NE) 16:23:15 467.674
SWISSCUBE 05 May 16:13:31 16:18:18 74° 301° (WNW) 16:23:04 437.505
COMPASS 1 05 May 16:14:51 16:17:41 18° 22° (NNE) 16:20:33 437.405
CINEMA 3 05 May 16:16:08 16:20:12 26° 30° (NNE) 16:24:10 145.822/145.860
GONETS M04 05 May 16:16:39 16:19:21 12° 332° (NNW) 16:22:02
SEEDS 05 May 16:16:51 16:19:53 20° 26° (NNE) 16:22:55 437.485
JAS-2 05 May 16:16:58 16:19:36 12° 312° (NW) 16:22:17 435.910
ITAMSAT 1 05 May 16:17:31 16:20:47 17° 284° (WNW) 16:24:03 435.822/435.867
HO-68 05 May 16:18:04 16:24:50 47° 28° (NNE) 16:31:36 435.675
AISAT 05 May 16:19:17 16:22:40 21° 339° (NNW) 16:26:04 437.250
TISAT 1 05 May 16:20:48 16:24:37 33° 318° (NW) 16:28:25 437.305
KKS-1 05 May 16:24:09 16:28:33 48° 103° (ESE) 16:32:54 437.445
CUTE-I 05 May 16:24:36 16:29:54 71° 57° (ENE) 16:35:14 437.470
DANDE 05 May 16:29:22 16:33:21 90° 97° (E) 16:38:48 436.750
UWE-3 05 May 16:29:46 16:32:50 19° 19° (NNE) 16:35:53 435.000/436.395/437.385
AO-85 05 May 16:30:59 16:36:09 52° 183° (S) 16:40:58 145.980
STARS 05 May 16:32:28 16:36:40 39° 98° (E) 16:40:50 437.465
50 SAT 05 May 16:35:04 16:36:56 14° 344° (NNW) 16:38:48 437.505
AAUSAT CUBESAT 2 05 May 16:42:16 16:45:17 20° 27° (NNE) 16:48:18 437.432
CUBEBUG 2 05 May 16:43:12 16:46:39 21° 25° (NNE) 16:50:02 437.445
PCSat 05 May 16:46:06 16:51:11 41° 141° (SE) 16:56:15 145.827
BEESAT 05 May 16:46:27 16:51:08 56° 307° (NW) 16:55:48 436.000
CUBEBUG 1 05 May 16:47:25 16:50:32 19° 345° (NNW) 16:53:40 437.445
MOZHAYETS 4 05 May 16:49:29 16:54:00 56° 104° (ESE) 16:58:32
ESTCUBE 1 05 May 16:50:19 16:53:26 19° 349° (N) 16:56:35 437.505/2401.250
ZACube-1 05 May 16:53:22 16:56:24 19° 20° (NNE) 16:59:24 437.345
BRITE-PL 05 May 16:54:34 16:59:54 83° 64° (ENE) 17:05:34 437.365/2234.400
NOAA 15 05 May 16:56:59 17:02:18 73° 249° (WSW) 17:07:40 137.62
CANX-2 05 May 16:57:36 17:01:14 29° 40° (NE) 17:04:54 2200.000
CUSAT 1 05 May 17:00:54 17:05:46 53° 314° (NW) 17:12:10 437.405
LilacSat-2 05 May 17:01:46 17:05:39 87° 67° (ENE) 17:09:33 437.200
NOAA 18 05 May 17:03:30 17:09:01 71° 249° (WSW) 17:14:31 137.9125
AO-7 05 May 17:03:43 17:10:30 27° 280° (W) 17:17:20 29.400- 29.500
HORYU 2 05 May 17:04:55 17:08:45 27° 269° (W) 17:12:35 437.375
CUBESAT XI-V 05 May 17:05:46 17:09:41 25° 87° (E) 17:13:35 437.345
DX 1 05 May 17:09:01 17:12:04 19° 349° (N) 17:15:07 434.975-435.025
UKube-1 05 May 17:09:46 17:12:47 19° 348° (NNW) 17:15:48 .
Cubesat XI-IV 05 May 17:10:04 17:15:26 78° 247° (WSW) 17:20:49 437.490
VELOX 1 05 May 17:22:46 17:25:49 18° 354° (N) 17:28:52 145.980
Oscar 11 05 May 17:28:36 17:31:59 23° 30° (NNE) 17:35:21 145.826/435.025
CUTE 1.7 + AOD 2 05 May 17:29:26 17:33:18 36° 47° (NE) 17:37:11 437.475
M-CUBED/EXP-1 PRIME 05 May 17:29:31 17:34:09 66° 241° (WSW) 17:38:30 437.505
HUMSAT D 05 May 17:30:07 17:32:43 16° 16° (NNE) 17:35:18 437.325/437.525
DELFI C3 05 May 17:30:44 17:33:23 17° 23° (NNE) 17:36:02 145.870
DOVE 4 05 May 17:30:53 17:36:09 67° 59° (ENE) 17:41:26 437.250
Cosmos 2491 05 May 17:31:50 17:40:38 70° 261° (W) 17:49:21 435.465 / 435.565
SPROUT 05 May 17:34:00 17:36:51 17° 347° (NNW) 17:39:42 437.525
Cosmos 2504 05 May 17:39:34 17:44:26 20° 61° (ENE) 17:49:22 435.465 / 435.565
ITUPSAT 1 05 May 17:43:43 17:48:04 36° 321° (NW) 17:52:25 437.325
FUNcube-1 05 May 17:44:35 17:48:06 24° 32° (NNE) 17:51:32 145.935
O/OREOS (USA 219) 05 May 17:45:18 17:49:54 74° 340° (NNW) 17:54:30 437.305
AUBIESAT-1 05 May 17:45:34 17:50:04 60° 243° (WSW) 17:54:20 437.475
COMPASS 1 05 May 17:48:40 17:52:26 34° 45° (NE) 17:56:11 437.405
GOMX 1 05 May 17:50:31 17:55:55 80° 251° (WSW) 18:01:29 467.674
SEEDS 05 May 17:50:56 17:54:50 39° 49° (NE) 17:58:44 437.485
SWISSCUBE 05 May 17:51:27 17:55:42 33° 324° (NW) 17:59:57 437.505
CINEMA 3 05 May 17:51:49 17:56:39 51° 52° (NE) 18:01:21 145.822/145.860
AISAT 05 May 17:54:59 17:58:00 18° 2° (N) 18:01:02 437.250
TISAT 1 05 May 17:56:25 17:59:24 19° 341° (NNW) 18:02:23 437.305
YUBILEINY 05 May 17:59:58 18:08:16 51° 88° (E) 18:16:34 435.215
KKS-1 05 May 18:00:52 18:05:18 59° 305° (NW) 18:09:44 437.445
STRAND 1 05 May 18:01:22 18:04:26 16° 75° (ENE) 18:07:28 437.568
UWE-3 05 May 18:04:25 18:08:23 32° 42° (NE) 18:12:18 435.000/436.395/437.385
HO-68 05 May 18:04:57 18:12:07 79° 54° (NE) 18:19:18 435.675
CUTE-I 05 May 18:05:12 18:10:19 46° 260° (W) 18:15:28 437.470
50 SAT 05 May 18:07:59 18:09:33 12° 7° (N) 18:11:07 437.505
STARS 05 May 18:08:56 18:13:22 70° 301° (WNW) 18:17:46 437.465
AO-85 05 May 18:11:18 18:16:10 40° 207° (SSW) 18:20:40 145.980
DANDE 05 May 18:12:53 18:16:54 37° 324° (NW) 18:22:10 436.750
AAUSAT CUBESAT 2 05 May 18:16:10 18:20:03 40° 50° (NE) 18:23:56 437.432
BEESAT 3 05 May 18:16:58 18:18:56 13° 128° (SE) 18:20:55 437.485
CUBEBUG 2 05 May 18:18:11 18:22:31 40° 48° (NE) 18:26:43 437.445
CUBEBUG 1 05 May 18:22:40 18:25:38 18° 8° (N) 18:28:37 437.445
BEESAT 05 May 18:24:18 18:28:20 28° 331° (NNW) 18:32:22 436.000
ESTCUBE 1 05 May 18:25:53 18:29:03 19° 13° (NNE) 18:32:13 437.505/2401.250
MOZHAYETS 4 05 May 18:26:49 18:31:16 52° 307° (NW) 18:35:43
ZACube-1 05 May 18:27:52 18:31:49 33° 43° (NE) 18:35:42 437.345
PCSat 05 May 18:28:44 18:34:07 65° 165° (SSE) 18:39:32 145.827
BEESAT 2 05 May 18:30:44 18:32:28 13° 126° (SE) 18:34:13 435.950
CANX-2 05 May 18:32:30 18:36:43 74° 63° (ENE) 18:40:57 2200.000
BRITE-PL 05 May 18:33:57 18:38:55 39° 268° (W) 18:44:10 437.365/2234.400
LilacSat-2 05 May 18:37:07 18:40:27 27° 269° (W) 18:43:47 437.200
NOAA 15 05 May 18:38:26 18:42:57 27° 272° (W) 18:47:30 137.62
CUBESAT XI-V 05 May 18:43:06 18:47:49 74° 109° (ESE) 18:52:33 437.345
DX 1 05 May 18:44:00 18:47:05 19° 13° (NNE) 18:50:11 434.975-435.025
CUSAT 1 05 May 18:44:24 18:49:16 32° 342° (NNW) 18:55:19 437.405
UKube-1 05 May 18:44:42 18:47:41 18° 11° (N) 18:50:40 .
NOAA 18 05 May 18:45:57 18:50:36 27° 272° (W) 18:55:16 137.9125
Cubesat XI-IV 05 May 18:51:39 18:56:18 29° 271° (W) 19:00:58 437.490
VELOX 1 05 May 18:57:52 19:01:07 20° 17° (NNE) 19:04:24 145.980
Oscar 11 05 May 19:03:18 19:07:27 47° 52° (NE) 19:11:37 145.826/435.025
DELFI C3 05 May 19:03:52 19:07:26 33° 46° (NE) 19:11:03 145.870
HUMSAT D 05 May 19:03:52 19:07:24 27° 39° (NE) 19:10:53 437.325/437.525
AO-7 05 May 19:04:27 19:06:53 11° 309° (NW) 19:09:20 29.400- 29.500
CUTE 1.7 + AOD 2 05 May 19:04:44 19:08:58 81° 248° (WSW) 19:13:13 437.475
M-CUBED/EXP-1 PRIME 05 May 19:05:40 19:09:22 23° 262° (W) 19:12:57 437.505
SPROUT 05 May 19:08:47 19:11:36 17° 11° (N) 19:14:24 437.525
DOVE 4 05 May 19:08:56 19:14:07 49° 261° (W) 19:19:18 437.250
RS-15 05 May 19:10:48 19:17:01 16° 86° (E) 19:23:22 29.354- 29.394
FUNcube-1 05 May 19:19:28 19:23:45 52° 55° (NE) 19:27:57 145.935
ITUPSAT 1 05 May 19:21:21 19:25:00 22° 344° (NNW) 19:28:40 437.325
AUBIESAT-1 05 May 19:21:52 19:25:18 21° 264° (W) 19:28:38 437.475
